Regional Weather Roundup
Issued by NWS

Home | Current Version | Previous Version | Text Only | Print | Product List | Glossary Off
Versions: 1 2 3 4 5 6 7 8 9 10 11 12 13 14 15 16 17 18 19 20 21 22 23 24 25 26 27 28 29 30 31 32 33 34 35 36 37 38 39 40 41 42 43 44 45 46 47 48 49 50

000
ASUS43 KLMK 310910
RWRKY
KENTUCKY REGIONAL WEATHER ROUNDUP
NATIONAL WEATHER SERVICE LOUISVILLE KY
500 AM EDT FRI OCT 31 2014

NOTE "FAIR" INDICATES FEW OR NO CLOUDS BELOW 12,000 FEET
WITH NO SIGNIFICANT WEATHER AND/OR OBSTRUCTIONS TO VISIBILITY.

KYZ001>023-026-027-061>063-070>075-311000-
WESTERN AND SOUTH CENTRAL KENTUCKY

CITY           SKY/WX    TMP DP  RH WIND       PRES   REMARKS
PADUCAH        CLOUDY    51  50  96 NW3       30.00S
HENDERSON      CLOUDY    48  43  81 N7        30.01S
OWENSBORO      LGT RAIN  49  43  80 NE5       30.02R
HOPKINSVILLE   CLOUDY    50  49  96 SW5       29.99F
BOWLING GREEN  CLOUDY    48  43  82 CALM      29.99F
GLASGOW        CLOUDY    46  43  90 CALM      29.98F
$$

KYZ024-025-028>034-038-045-046-053-311000-
NORTH CENTRAL KENTUCKY

CITY           SKY/WX    TMP DP  RH WIND       PRES   REMARKS
LOUISVILLE/SDF LGT RAIN  48  42  80 E6        30.00F
LOUISVILLE/LOU LGT RAIN  47  42  83 CALM      30.01F
FORT KNOX      LGT RAIN  45  42  90 N1        29.99F
$$

KYZ035>037-039>044-047>052-055>060-089>105-311000-
NORTHEAST KENTUCKY

CITY           SKY/WX    TMP DP  RH WIND       PRES   REMARKS
LEXINGTON      LGT RAIN  46  40  79 CALM      30.00F
COVINGTON      CLOUDY    44  41  89 CALM      29.99F
FRANKFORT      LGT RAIN  43  40  89 N3        29.99F
$$

KYZ054-064>069-076>088-106>120-311000-
SOUTHEAST KENTUCKY

CITY           SKY/WX    TMP DP  RH WIND       PRES   REMARKS
JACKSON        CLOUDY    41  34  76 CALM      29.99F
LONDON         NOT AVBL
SOMERSET       CLOUDY    39  39 100 CALM      30.01F
MIDDLESBORO    FOG       36  36 100 CALM      30.01F VSB 1/2
MONTICELLO     CLOUDY    42  41  97 CALM      30.01F
$$




USA.gov is the U.S. government's official web portal to all federal, state and local government web resources and services.